Weather History for Opa Locka, FL

Change the Weather History Date:

Tuesday, November 27, 2012

  Actual Average Record
Temperature  
Mean Temperature 72 °F -  
Max Temperature 81 °F 80 °F 86 °F (1986)
Min Temperature 64 °F 66 °F 38 °F (1956)
Cooling Degree Days 8    
Growing Degree Days 22 (Base 50)    
Moisture  
Dew Point 63 °F    
Average Humidity 77    
Maximum Humidity 93    
Minimum Humidity 56    
Precipitation  
Precipitation 0.00 in - - ()
Sea Level Pressure  
Sea Level Pressure 30.15 in    
Wind  
Wind Speed 5 mph (SE)    
Max Wind Speed 13 mph    
Max Gust Speed 16 mph    
Visibility 10 miles    
Events      
Averages and records for this station are not official NWS values.
T = Trace of Precipitation, MM = Missing Value Source: NWS Daily Summary

Daily Weather History Graph

Daily Weather History Graph

Search for Another Location

Airport:

Trip Planner

Search our weather history database for the weather conditions in past years. The results will help you decide how hot, cold, wet, or windy it might be!

Date:

Astronomy

Nov. 27, 2012 Rise Set
Actual Time 6:48 AM EST 5:29 PM EST
Civil Twilight 6:23 AM EST 5:54 PM EST
Nautical Twilight 5:55 AM EST 6:22 PM EST
Astronomical Twilight 5:27 AM EST 6:50 PM EST
Moon 4:58 PM EST (11/27) 5:54 AM EST (11/27)
Length of Visible Light 11h 30m
Length of Day
10h 40m
Waxing Gibbous, 99% of the Moon is Illuminated
Nov 27
Waxing Gibbous
Nov 28
Full
Dec 6
Last Quarter
Dec 13
New
Dec 20
First Quarter

Hourly Weather History & Observations

Time (EST) Temp. Heat Index Dew Point Humidity Pressure Visibility Wind Dir Wind Speed Gust Speed Precip Events Conditions
12:53 AM 64.9 °F - 61.0 °F 87% 30.18 in 10.0 mi Calm Calm - N/A   Clear
1:53 AM 66.0 °F - 61.0 °F 84% 30.17 in 10.0 mi SE 4.6 mph - N/A   Partly Cloudy
2:53 AM 66.0 °F - 61.0 °F 84% 30.16 in 10.0 mi ESE 5.8 mph - N/A   Partly Cloudy
3:53 AM 64.0 °F - 61.0 °F 90% 30.16 in 10.0 mi East 5.8 mph - N/A   Partly Cloudy
4:53 AM 64.9 °F - 61.0 °F 87% 30.15 in 10.0 mi East 4.6 mph - N/A   Partly Cloudy
5:53 AM 64.9 °F - 62.1 °F 90% 30.16 in 10.0 mi Calm Calm - N/A   Partly Cloudy
6:53 AM 64.9 °F - 62.1 °F 90% 30.17 in 10.0 mi Calm Calm - N/A   Overcast
7:53 AM 69.1 °F - 64.0 °F 84% 30.18 in 10.0 mi ENE 3.5 mph - N/A   Overcast
8:53 AM 73.0 °F - 64.9 °F 76% 30.19 in 10.0 mi ESE 6.9 mph - N/A   Overcast
9:53 AM 73.9 °F - 64.9 °F 73% 30.20 in 10.0 mi SE 8.1 mph - N/A   Overcast
10:33 AM 78.8 °F - 64.4 °F 61% 30.19 in 10.0 mi SE 11.5 mph - 0.00 in   Overcast
10:53 AM 79.0 °F - 64.0 °F 60% 30.19 in 10.0 mi SE 12.7 mph - 0.00 in   Scattered Clouds
11:53 AM 81.0 °F 82.5 °F 64.0 °F 56% 30.17 in 10.0 mi SE 12.7 mph 16.1 mph N/A   Mostly Cloudy
12:53 PM 79.0 °F - 64.0 °F 60% 30.14 in 10.0 mi SE 11.5 mph - N/A   Mostly Cloudy
1:53 PM 77.0 °F - 64.0 °F 64% 30.13 in 10.0 mi ESE 8.1 mph - N/A   Mostly Cloudy
2:53 PM 77.0 °F - 64.4 °F 65% 30.11 in 10.0 mi ESE 10.4 mph - N/A   Mostly Cloudy
3:53 PM 77.0 °F - 64.0 °F 64% 30.10 in 10.0 mi SE 9.2 mph - N/A   Overcast
4:53 PM 75.9 °F - 64.0 °F 67% 30.12 in 10.0 mi SSE 9.2 mph - N/A   Overcast
5:53 PM 73.0 °F - 64.0 °F 73% 30.12 in 10.0 mi SSE 5.8 mph - N/A   Partly Cloudy
6:53 PM 73.0 °F - 64.9 °F 76% 30.14 in 10.0 mi South 3.5 mph - N/A   Overcast
7:53 PM 72.0 °F - 64.9 °F 78% 30.15 in 10.0 mi South 3.5 mph - N/A   Partly Cloudy
8:53 PM 70.0 °F - 64.0 °F 81% 30.16 in 10.0 mi Calm Calm - N/A   Clear
9:53 PM 69.1 °F - 64.9 °F 87% 30.15 in 10.0 mi WNW 3.5 mph - N/A   Clear
10:53 PM 68.0 °F - 64.9 °F 90% 30.14 in 10.0 mi Calm Calm - N/A   Clear
11:53 PM 66.0 °F - 64.0 °F 93% 30.14 in 10.0 mi Calm Calm - N/A   Clear